Location: Dana
(41.8364°N, 106.7042°W)
Time: 11:13:17
(UTC+00:00)

Vanguard 3 - Visible Passes

Search period start: 15 May 2026 00:00
Search period end: 25 May 2026 00:00
Orbit: 507 x 3205 km, 33.4° (Epoch: 14 May)

Date Brightness Start Highest point End Pass type
(mag) Time Alt. Az. Time Alt. Az. Time Alt. Az.
15 May 10.0 02:39:16 10° W 02:52:26 32° SW 03:01:10 10° SSE visible
16 May 10.2 03:31:57 10° W 03:40:50 19° SW 03:47:31 10° S visible
18 May 10.4 02:57:06 10° W 03:07:35 21° SW 03:15:27 10° S visible
21 May 10.9 03:19:02 10° WSW 03:22:22 11° SW 03:25:26 10° SW visible
23 May 11.1 02:43:17 10° WSW 02:48:53 12° SW 02:53:55 10° SW visible
